LEAS Weather Reports


time (UTC)temp
C
wind
direction
speed
KPH
gust
KPH
rain 1hr
cm
rain 24hr
cm
rain mn
cm
humidity
%
barometer
mb
20260507100005 16 100 12.9 0.0 0.00 0.00 0.00 72 1011.0
20260507094504 16 100 12.9 0.0 0.00 0.00 0.00 72 1011.0
20260507091504 15 120 11.3 0.0 0.00 0.00 0.00 72 1011.0
20260507090005 13 110 12.9 0.0 0.00 0.00 0.00 76 1011.0
20260507084504 13 110 12.9 0.0 0.00 0.00 0.00 76 1011.0
20260507071504 12 0 1.6 0.0 0.00 0.00 0.00 93 1011.0
20260507061504 10 230 8.0 0.0 0.00 0.00 0.00 93 1011.0
20260507054504 8 0 1.6 0.0 0.00 0.00 0.00 100 1011.0
20260507051504 10 0 1.6 0.0 0.00 0.00 0.00 93 1011.0
20260507050005 10 210 4.8 0.0 0.00 0.00 0.00 93 1012.0
20260507044504 10 210 4.8 0.0 0.00 0.00 0.00 93 1012.0
20260507041504 11 180 3.2 0.0 0.00 0.00 0.00 87 1012.0
20260507023004 11 200 3.2 0.0 0.00 0.00 0.00 93 1012.0
20260507021503 11 200 3.2 0.0 0.00 0.00 0.00 93 1012.0
20260507020005 11 150 3.2 0.0 0.00 0.00 0.00 93 1013.0
20260507014504 11 150 3.2 0.0 0.00 0.00 0.00 93 1013.0
20260507010004 12 0 3.2 0.0 0.00 0.00 0.00 93 1013.0
20260507004503 12 0 3.2 0.0 0.00 0.00 0.00 93 1013.0
20260507001504 12 210 8.0 0.0 0.00 0.00 0.00 93 1013.0
20260507000004 12 230 8.0 0.0 0.00 0.00 0.00 93 1013.0
20260506234505 12 230 8.0 0.0 0.00 0.00 0.00 93 1013.0
20260506233004 12 190 8.0 0.0 0.00 0.00 0.00 87 1014.0
20260506231504 12 190 8.0 0.0 0.00 0.00 0.00 87 1014.0
20260506230004 12 190 8.0 0.0 0.00 0.00 0.00 87 1014.0
20260506224503 12 190 8.0 0.0 0.00 0.00 0.00 87 1014.0
20260506221504 12 0 3.2 0.0 0.00 0.00 0.00 87 1014.0
20260506214504 12 0 3.2 0.0 0.00 0.00 0.00 87 1014.0
20260506213004 12 130 4.8 0.0 0.00 0.00 0.00 87 1014.0
20260506211504 12 130 4.8 0.0 0.00 0.00 0.00 87 1014.0
20260506204504 12 0 3.2 0.0 0.00 0.00 0.00 87 1014.0
20260506200004 13 0 1.6 0.0 0.00 0.00 0.00 87 1014.0
20260506194504 13 0 1.6 0.0 0.00 0.00 0.00 87 1014.0
20260506184504 13 310 8.0 0.0 0.00 0.00 0.00 82 1014.0
20260506183004 13 300 8.0 0.0 0.00 0.00 0.00 82 1014.0
20260506174504 15 310 11.3 0.0 0.00 0.00 0.00 76 1014.0
20260506173004 15 310 11.3 0.0 0.00 0.00 0.00 76 1014.0
20260506171504 15 310 11.3 0.0 0.00 0.00 0.00 76 1014.0
20260506163005 16 320 11.3 0.0 0.00 0.00 0.00 77 1014.0
20260506154504 15 310 11.3 0.0 0.00 0.00 0.00 76 1014.0
20260506151504 15 320 12.9 0.0 0.00 0.00 0.00 76 1014.0
20260506150004 15 310 12.9 0.0 0.00 0.00 0.00 76 1015.0
20260506140004 15 330 1.6 0.0 0.00 0.00 0.00 76 1015.0
20260506134504 15 330 1.6 0.0 0.00 0.00 0.00 76 1015.0
20260506133004 15 320 14.5 0.0 0.00 0.00 0.00 76 1015.0
20260506130005 16 290 19.3 0.0 0.00 0.00 0.00 72 1015.0
20260506124504 16 290 19.3 0.0 0.00 0.00 0.00 72 1015.0
20260506123004 15 300 1.6 0.0 0.00 0.00 0.00 72 1015.0
20260506121505 15 300 1.6 0.0 0.00 0.00 0.00 72 1015.0
20260506114503 17 300 14.5 0.0 0.00 0.00 0.00 77 1015.0
20260506111503 15 280 20.9 0.0 0.00 0.00 0.00 76 1015.0
20260506110005 16 290 14.5 0.0 0.00 0.00 0.00 72 1015.0
20260506104504 16 290 14.5 0.0 0.00 0.00 0.00 72 1015.0
20260506103005 13 280 9.7 0.0 0.00 0.00 0.00 76 1015.0
20260506101504 13 280 9.7 0.0 0.00 0.00 0.00 76 1015.0